Weather History for FAGG - March, 2012

Change the Weather History Date:

Monday, March 19, 2012

  Actual Average Record
Temperature  
Mean Temperature 68 °F -  
Max Temperature 80 °F 71 °F 87 °F (1998)
Min Temperature 57 °F 54 °F 51 °F (2001)
Cooling Degree Days 4    
Growing Degree Days 18 (Base 50)    
Moisture  
Dew Point 58 °F    
Average Humidity 69    
Maximum Humidity 88    
Minimum Humidity 39    
Precipitation  
Precipitation 0.00 in - - ()
Sea Level Pressure  
Sea Level Pressure 30.03 in    
Wind  
Wind Speed 9 mph ()    
Max Wind Speed 18 mph    
Max Gust Speed -    
Visibility 8.5 miles    
Events      
Averages and records for this station are not official NWS values.
T = Trace of Precipitation, MM = Missing Value Source: Averaged Metar Reports

Daily Weather History Graph

Daily Weather History Graph

Search for Another Location

Airport or City:

Trip Planner

Search our weather history database for the weather conditions in past years. The results will help you decide how hot, cold, wet, or windy it might be!

Date:

Astronomy

Mar. 19, 2012 Rise Set
Actual Time 6:33 AM SAST 6:42 PM SAST
Civil Twilight 6:08 AM SAST 7:07 PM SAST
Nautical Twilight 5:38 AM SAST 7:36 PM SAST
Astronomical Twilight 5:09 AM SAST 8:06 PM SAST
Moon 3:28 AM SAST (3/19) 4:45 PM SAST (3/19)
Length of Visible Light 12h 59m
Length of Day
12h 09m
Waning Crescent, 10% of the Moon is Illuminated
Mar 19
Waning Crescent
Mar 22
New
Mar 30
First Quarter
Apr 6
Full
Apr 13
Last Quarter

Hourly Weather History & Observations

Time (SAST) Temp. Dew Point Humidity Pressure Visibility Wind Dir Wind Speed Gust Speed Precip Events Conditions
12:00 AM 57.2 °F 53.6 °F 88% 30.01 in - NNW 6.9 mph - N/A   Clear
1:00 AM 59.0 °F 53.6 °F 82% 30.01 in - NNW 8.1 mph - N/A   Clear
2:00 AM 58 °F 54 °F 80% 30.02 in 19 mi NW 4.6 mph - -  
2:00 AM 57.2 °F 53.6 °F 88% 30.01 in - NW 4.6 mph - N/A   Clear
3:00 AM 59.0 °F 53.6 °F 82% 30.01 in - NW 6.9 mph - N/A   Clear
4:00 AM 60.8 °F 53.6 °F 77% 30.01 in - NW 8.1 mph - N/A   Clear
5:00 AM 62 °F 52 °F 60% 30.01 in 12 mi WNW 10.4 mph - -   Scattered Clouds
5:00 AM 62.6 °F 51.8 °F 68% 30.01 in 6.2 mi WNW 9.2 mph - N/A   Partly Cloudy
6:00 AM 66.2 °F 55.4 °F 68% 30.01 in 6.2 mi NW 11.5 mph - N/A   Scattered Clouds
7:00 AM 68.0 °F 57.2 °F 68% 30.01 in 6.2 mi WNW 11.5 mph - N/A   Mostly Cloudy
8:00 AM 70 °F 59 °F 59% 30.04 in 12 mi West 10.4 mph - -   Mostly Cloudy
8:00 AM 69.8 °F 59.0 °F 68% 30.04 in 6.2 mi West 10.4 mph - N/A   Mostly Cloudy
9:00 AM 71.6 °F 59.0 °F 64% 30.04 in 6.2 mi West 12.7 mph - N/A   Mostly Cloudy
10:00 AM 73.4 °F 57.2 °F 57% 30.04 in 6.2 mi West 11.5 mph - N/A   Mostly Cloudy
10:51 AM 77.0 °F 57.2 °F 50% 30.04 in 6.2 mi West 18.4 mph - N/A   Scattered Clouds
11:00 AM 77 °F 57 °F 39% 30.05 in 12 mi West 17.3 mph - -   Partly Cloudy
11:00 AM 77.0 °F 57.2 °F 50% 30.04 in 6.2 mi West 18.4 mph - N/A   Scattered Clouds
12:00 PM 78.8 °F 57.2 °F 47% 30.04 in 6.2 mi West 15.0 mph - N/A   Mostly Cloudy
1:00 PM 75.2 °F 62.6 °F 65% 30.01 in 6.2 mi SSW 10.4 mph - N/A   Mostly Cloudy
2:00 PM 73 °F 65 °F 68% 30.03 in 12 mi SSW 13.8 mph - -   Mostly Cloudy
2:00 PM 73.4 °F 64.4 °F 73% 30.01 in 6.2 mi SSW 13.8 mph - N/A   Mostly Cloudy
3:00 PM 71.6 °F 64.4 °F 78% 30.04 in 6.2 mi SSW 17.3 mph - N/A   Mostly Cloudy
3:36 PM 71.6 °F 64.4 °F 78% 30.04 in 6.2 mi SSW 17.3 mph - N/A   Mostly Cloudy
5:00 PM 69 °F 65 °F 81% 30.06 in 12 mi SSW 11.5 mph - -   Mostly Cloudy
5:00 PM 69.8 °F 64.4 °F 83% 30.04 in 6.2 mi SSW 10.4 mph - N/A   Mostly Cloudy
8:00 PM - - %  in 12 mi Calm Calm - -   Mostly Cloudy
8:00 PM - - N/A% 0.00 in - North - - N/A   Mostly Cloudy